sat.trackr.live / text

‹ back to catalog

CELESTIS-02 & TAURUS R/B

NORAD 25160 · 1998-007D

PAYLOAD ACTIVE UNKNOWN

§ Identity

Operator
Country
US
Launch date
1998-02-10
Launch site
AFWTR
Launch vehicle
Mass (kg)
RCS (m²)
3.45

External: N2YO · Heavens-Above · Gunter

§ Orbital elements

Epoch: 2026-09-19T05:14:54.931776Z

Period
101.23 min
Inclination
108.0051°
Eccentricity
0.0062996
Mean motion
14.22506121 rev/d
Perigee alt
771.6 km
Apogee alt
862.2 km
Semi-major
7,195.0 km
B*
4.0139e-5
RAAN
162.2088°
Arg perigee
331.1445°
Mean anomaly
180.1387°
Rev number
48,388

§ Raw data

CELESTIS-02 & TAURUS R/B1 25160U 98007D   26262.21869134 -.00000039  00000+0  40139-4 0  99932 25160 108.0051 162.2088 0062996 331.1445 180.1387 14.22506121483884

JSON: /api/v1/satellites/25160 · /tle

For live sub-satellite position, see the globe view (requires WebGL).

§ Visibility from observer

Set your observer location to see the next 7 days of passes ≥ 10°. The values pass through the URL so the page stays shareable.

No JS? Fill the form by hand. The geolocation button needs JavaScript.